Location: Poughquag
(41.6090°N, 73.6820°W)
Time: 10:10:21
(UTC-05:00)

SR - Pass Details

Date: 13 December 2023
Orbit: 574 x 868 km, 66.7° (Epoch: 25 February)

Event Time Altitude Azimuth Distance (km) Brightness Sun altitude
Rises 09:52:42 0° 228° (SW) 3,281 ? 19.9°
Reaches altitude 10° 09:55:09 10° 234° (SW) 2,394 ? 20.1°
Maximum altitude 10:00:29 46° 307° (NW) 1,132 ? 20.5°
Drops below altitude 10° 10:06:05 10° 20° (NNE) 2,514 ? 21.0°
Sets 10:08:44 0° 26° (NNE) 3,461 ? 21.2°
